IGO1607 WADD-VOBL

Flight info

Callsign IGO1607
Flight time N/A
Altitude 34000
Route OKANG T4 FARIZ T6 DKI DCT PLB A585 ISVUR N563 LEKAP LEKAP7E
Aircraft A320/M-SDE3FGHIRWY/LB1

Departure

Time 2026-05-08 02:25
Airport Denpasar I Gusti Ngurah Rai International Airport (WADD)

Arrival

Time N/A
Airport Kempegowda International Airport Bengaluru (VOBL)
Time Latitude Longitude Altitude Speed Heading
2026-05-08 02:08 -8.74533 115.16797 21 ft 0 kts 357°
2026-05-08 02:16 -8.74533 115.16798 20 ft 1 kts 357°
2026-05-08 02:16 -8.74556 115.16799 21 ft 4 kts 357°
2026-05-08 02:17 -8.74578 115.16800 21 ft 4 kts 356°
2026-05-08 02:17 -8.74605 115.16802 22 ft 4 kts 348°
2026-05-08 02:17 -8.74630 115.16810 21 ft 4 kts 333°
2026-05-08 02:17 -8.74646 115.16820 23 ft 1 kts 319°
2026-05-08 02:18 -8.74649 115.16822 24 ft 0 kts 319°
2026-05-08 02:18 -8.74620 115.16798 22 ft 22 kts 319°
2026-05-08 02:18 -8.74586 115.16768 21 ft 0 kts 319°
2026-05-08 02:19 -8.74584 115.16762 20 ft 2 kts 289°
2026-05-08 02:20 -8.74593 115.16728 20 ft 8 kts 254°
2026-05-08 02:20 -8.74640 115.16660 20 ft 15 kts 234°
2026-05-08 02:20 -8.74676 115.16546 20 ft 21 kts 270°
2026-05-08 02:20 -8.74683 115.16379 23 ft 23 kts 267°
2026-05-08 02:21 -8.74693 115.16217 21 ft 25 kts 266°
2026-05-08 02:21 -8.74701 115.16089 21 ft 19 kts 266°
2026-05-08 02:21 -8.74710 115.15941 20 ft 22 kts 267°
2026-05-08 02:21 -8.74717 115.15776 20 ft 26 kts 268°
2026-05-08 02:22 -8.74723 115.15593 20 ft 23 kts 269°
2026-05-08 02:22 -8.74727 115.15443 20 ft 13 kts 265°
2026-05-08 02:22 -8.74785 115.15387 22 ft 14 kts 181°
2026-05-08 02:22 -8.74883 115.15417 21 ft 16 kts 129°
2026-05-08 02:23 -8.74892 115.15487 20 ft 0 kts 87°
2026-05-08 02:24 -8.74892 115.15488 20 ft 1 kts 87°
2026-05-08 02:24 -8.74891 115.15506 20 ft 4 kts 87°
2026-05-08 02:24 -8.74888 115.15559 20 ft 17 kts 87°
2026-05-08 02:24 -8.74879 115.15896 20 ft 78 kts 85°
2026-05-08 02:25 -8.74846 115.16612 21 ft 123 kts 87°
2026-05-08 02:25 -8.74806 115.17599 22 ft 157 kts 88°
2026-05-08 02:25 -8.74741 115.18764 365 ft 163 kts 89°
2026-05-08 02:25 -8.74685 115.19892 920 ft 165 kts 89°
2026-05-08 02:26 -8.74596 115.21088 1379 ft 176 kts 81°
2026-05-08 02:26 -8.74061 115.22201 1964 ft 182 kts 46°
2026-05-08 02:26 -8.72904 115.22711 2598 ft 189 kts
2026-05-08 02:26 -8.71601 115.22492 3199 ft 192 kts 345°
2026-05-08 02:27 -8.70412 115.21850 3664 ft 201 kts 321°
2026-05-08 02:27 -8.69367 115.20841 3971 ft 217 kts 316°
2026-05-08 02:27 -8.68256 115.19682 4152 ft 242 kts 316°
2026-05-08 02:27 -8.67029 115.18402 4437 ft 266 kts 316°
2026-05-08 02:28 -8.65674 115.17016 4842 ft 285 kts 316°
2026-05-08 02:28 -8.64254 115.15587 5543 ft 290 kts 316°
2026-05-08 02:28 -8.62807 115.14150 6328 ft 293 kts 316°
2026-05-08 02:28 -8.61335 115.12703 7063 ft 296 kts 317°
2026-05-08 02:29 -8.59845 115.11251 7822 ft 299 kts 317°
2026-05-08 02:29 -8.58341 115.09794 8604 ft 300 kts 317°
2026-05-08 02:29 -8.56835 115.08339 9409 ft 300 kts 316°
2026-05-08 02:29 -8.55328 115.06879 10133 ft 302 kts 316°
2026-05-08 02:30 -8.53762 115.05361 10342 ft 323 kts 316°
2026-05-08 02:30 -8.52081 115.03735 10481 ft 344 kts 316°
2026-05-08 02:30 -8.50327 115.02041 10911 ft 353 kts 316°
2026-05-08 02:30 -8.48538 115.00310 11487 ft 358 kts 316°
2026-05-08 02:31 -8.46681 114.98618 12086 ft 362 kts 322°
2026-05-08 02:31 -8.44563 114.97226 12664 ft 366 kts 328°
2026-05-08 02:31 -8.42404 114.95906 13221 ft 369 kts 328°
2026-05-08 02:31 -8.40196 114.94555 13793 ft 373 kts 327°
2026-05-08 02:32 -8.37964 114.93187 14291 ft 377 kts 327°
2026-05-08 02:32 -8.35713 114.91807 14824 ft 380 kts 327°
2026-05-08 02:32 -8.33448 114.90426 15352 ft 382 kts 327°
2026-05-08 02:32 -8.31150 114.89050 15866 ft 385 kts 328°
2026-05-08 02:33 -8.28827 114.87680 16384 ft 388 kts 328°
2026-05-08 02:33 -8.26487 114.86306 16889 ft 391 kts 328°
2026-05-08 02:33 -8.24134 114.84921 17394 ft 393 kts 328°
2026-05-08 02:33 -8.21758 114.83518 17870 ft 397 kts 328°
2026-05-08 02:34 -8.19373 114.82107 18361 ft 399 kts 328°
2026-05-08 02:34 -8.16971 114.80681 18803 ft 401 kts 328°
2026-05-08 02:34 -8.14561 114.79249 19243 ft 403 kts 328°
2026-05-08 02:34 -8.12138 114.77808 19697 ft 405 kts 328°
2026-05-08 02:35 -8.09700 114.76357 20145 ft 407 kts 328°
2026-05-08 02:35 -8.07251 114.74904 20593 ft 409 kts 328°
2026-05-08 02:35 -8.04789 114.73449 21039 ft 411 kts 328°
2026-05-08 02:35 -8.02311 114.71986 21485 ft 413 kts 328°
2026-05-08 02:36 -7.99823 114.70514 21920 ft 415 kts 328°
2026-05-08 02:36 -7.97326 114.69035 22353 ft 418 kts 328°
2026-05-08 02:36 -7.94829 114.67529 22774 ft 419 kts 324°
2026-05-08 02:36 -7.92564 114.65682 23205 ft 420 kts 314°
2026-05-08 02:37 -7.90690 114.63426 23589 ft 420 kts 303°
2026-05-08 02:37 -7.89280 114.60841 23947 ft 421 kts 292°
2026-05-08 02:37 -7.88366 114.58035 24293 ft 423 kts 284°
2026-05-08 02:37 -7.87617 114.55160 24646 ft 425 kts 284°
2026-05-08 02:38 -7.86858 114.52276 24997 ft 427 kts 284°
2026-05-08 02:38 -7.86092 114.49375 25342 ft 429 kts 284°
2026-05-08 02:38 -7.85327 114.46464 25684 ft 431 kts 284°
2026-05-08 02:38 -7.84556 114.43530 26024 ft 433 kts 284°
2026-05-08 02:39 -7.83781 114.40586 26356 ft 436 kts 284°
2026-05-08 02:39 -7.82996 114.37625 26685 ft 438 kts 284°
2026-05-08 02:39 -7.82214 114.34692 26982 ft 441 kts 284°
2026-05-08 02:39 -7.81418 114.31700 27299 ft 443 kts 284°
2026-05-08 02:40 -7.80620 114.28690 27606 ft 445 kts 284°
2026-05-08 02:40 -7.79822 114.25667 27907 ft 447 kts 284°
2026-05-08 02:40 -7.79021 114.22630 28200 ft 449 kts 284°
2026-05-08 02:40 -7.78220 114.19588 28620 ft 448 kts 284°
2026-05-08 02:41 -7.77421 114.16552 29038 ft 448 kts 284°
2026-05-08 02:41 -7.76625 114.13521 29452 ft 447 kts 284°
2026-05-08 02:41 -7.75803 114.10504 29868 ft 447 kts 288°
2026-05-08 02:41 -7.74614 114.07609 30222 ft 447 kts 297°
2026-05-08 02:42 -7.72996 114.04935 30575 ft 447 kts 303°
2026-05-08 02:42 -7.71285 114.02318 30949 ft 446 kts 303°
2026-05-08 02:42 -7.69580 113.99705 31338 ft 446 kts 303°
2026-05-08 02:42 -7.67879 113.97096 31729 ft 445 kts 303°
2026-05-08 02:43 -7.66186 113.94495 32132 ft 443 kts 303°
2026-05-08 02:43 -7.64499 113.91900 32515 ft 442 kts 303°
2026-05-08 02:43 -7.62816 113.89309 32905 ft 441 kts 303°
2026-05-08 02:43 -7.61133 113.86724 33291 ft 440 kts 303°
2026-05-08 02:44 -7.59454 113.84149 33689 ft 439 kts 303°
2026-05-08 02:44 -7.57777 113.81575 33862 ft 440 kts 303°
2026-05-08 02:44 -7.54395 113.76388 33893 ft 450 kts 303°
2026-05-08 02:45 -7.50945 113.71093 33894 ft 453 kts 303°
2026-05-08 02:45 -7.47486 113.65788 33890 ft 453 kts 303°
2026-05-08 02:46 -7.44025 113.60483 33885 ft 453 kts 303°
2026-05-08 02:46 -7.40562 113.55178 33886 ft 453 kts 303°
2026-05-08 02:47 -7.37099 113.49875 33893 ft 453 kts 304°
2026-05-08 02:47 -7.33631 113.44566 33888 ft 453 kts 304°
2026-05-08 02:48 -7.30166 113.39263 33891 ft 453 kts 304°
2026-05-08 02:48 -7.26701 113.33961 33883 ft 453 kts 304°
2026-05-08 02:49 -7.23239 113.28662 33889 ft 453 kts 304°
2026-05-08 02:49 -7.19772 113.23365 33892 ft 453 kts 304°
2026-05-08 02:50 -7.16301 113.18066 33889 ft 453 kts 304°
2026-05-08 02:50 -7.12833 113.12768 33884 ft 453 kts 304°
2026-05-08 02:51 -7.09360 113.07468 33883 ft 454 kts 304°
2026-05-08 02:51 -7.05885 113.02163 33889 ft 454 kts 304°
2026-05-08 02:52 -7.02999 112.97753 33889 ft 454 kts 304°
2026-05-08 02:52 -6.99520 112.92454 33887 ft 454 kts 304°
2026-05-08 02:53 -6.96041 112.87151 33889 ft 454 kts 304°
2026-05-08 02:53 -6.92566 112.81845 33887 ft 454 kts 304°
2026-05-08 02:54 -6.89091 112.76537 33881 ft 454 kts 304°
2026-05-08 02:54 -6.85609 112.71227 33883 ft 455 kts 304°
2026-05-08 02:55 -6.80378 112.63268 33881 ft 455 kts 304°
2026-05-08 02:56 -6.76892 112.57956 33883 ft 455 kts 304°
2026-05-08 02:56 -6.73403 112.52639 33888 ft 455 kts 304°
2026-05-08 02:57 -6.69912 112.47326 33891 ft 455 kts 304°
2026-05-08 02:57 -6.66448 112.42046 33890 ft 455 kts 304°
2026-05-08 02:58 -6.62950 112.36732 33886 ft 455 kts 304°
2026-05-08 02:58 -6.59449 112.31422 33890 ft 455 kts 304°
2026-05-08 02:59 -6.55952 112.26109 33891 ft 456 kts 304°
2026-05-08 02:59 -6.52458 112.20792 33891 ft 456 kts 304°
2026-05-08 03:00 -6.48962 112.15476 33887 ft 456 kts 304°
2026-05-08 03:00 -6.45462 112.10166 33887 ft 456 kts 304°
2026-05-08 03:01 -6.41966 112.04848 33891 ft 456 kts 304°
2026-05-08 03:01 -6.38460 111.99539 33894 ft 456 kts 304°
2026-05-08 03:02 -6.34946 111.94221 33888 ft 456 kts 304°
2026-05-08 03:02 -6.31447 111.88900 33890 ft 456 kts 303°
2026-05-08 03:03 -6.27946 111.83579 33893 ft 456 kts 304°
2026-05-08 03:03 -6.24437 111.78265 33890 ft 456 kts 304°
2026-05-08 03:04 -6.20927 111.72950 33886 ft 456 kts 303°
2026-05-08 03:04 -6.17422 111.67634 33882 ft 457 kts 303°
2026-05-08 03:05 -6.13910 111.62305 33892 ft 457 kts 303°
2026-05-08 03:05 -6.10393 111.56987 33894 ft 457 kts 304°
2026-05-08 03:06 -6.06869 111.51663 33896 ft 457 kts 303°
2026-05-08 03:06 -6.03355 111.46343 33892 ft 457 kts 303°
2026-05-08 03:07 -5.99833 111.41012 33896 ft 457 kts 303°
2026-05-08 03:07 -5.96312 111.35690 33890 ft 458 kts 303°
2026-05-08 03:08 -5.92789 111.30363 33896 ft 458 kts 303°
2026-05-08 03:08 -5.89461 111.24926 33893 ft 457 kts 294°
2026-05-08 03:08 -5.88412 111.21957 33892 ft 457 kts 283°
2026-05-08 03:09 -5.87894 111.18813 33894 ft 457 kts 274°
2026-05-08 03:09 -5.88294 111.12461 33891 ft 457 kts 263°
2026-05-08 03:10 -5.89002 111.06121 33892 ft 457 kts 264°
2026-05-08 03:10 -5.89698 110.99771 33892 ft 457 kts 264°
2026-05-08 03:11 -5.90403 110.93417 33890 ft 458 kts 264°
2026-05-08 03:11 -5.91108 110.87066 33897 ft 458 kts 264°
2026-05-08 03:12 -5.91823 110.80709 33895 ft 458 kts 264°
2026-05-08 03:12 -5.92530 110.74358 33897 ft 458 kts 264°
2026-05-08 03:13 -5.93232 110.68005 33893 ft 458 kts 264°
2026-05-08 03:13 -5.93934 110.61659 33897 ft 457 kts 264°
2026-05-08 03:14 -5.94640 110.55306 33891 ft 457 kts 264°
2026-05-08 03:14 -5.95330 110.48996 33892 ft 457 kts 264°
2026-05-08 03:15 -5.96032 110.42604 33894 ft 457 kts 264°
2026-05-08 03:15 -5.96508 110.36281 33890 ft 457 kts 270°
2026-05-08 03:16 -5.96501 110.29850 33898 ft 457 kts 270°
2026-05-08 03:16 -5.96505 110.23507 33897 ft 457 kts 270°
2026-05-08 03:17 -5.96506 110.17120 33897 ft 457 kts 270°
2026-05-08 03:17 -5.96503 110.10732 33897 ft 457 kts 270°
2026-05-08 03:18 -5.96493 110.04348 33901 ft 457 kts 270°
2026-05-08 03:18 -5.96492 109.97963 33897 ft 457 kts 270°
2026-05-08 03:19 -5.96500 109.91581 33900 ft 457 kts 270°
2026-05-08 03:19 -5.96503 109.85200 33899 ft 457 kts 270°
2026-05-08 03:20 -5.96496 109.78823 33896 ft 457 kts 270°
2026-05-08 03:20 -5.96488 109.72444 33897 ft 457 kts 270°
2026-05-08 03:21 -5.96480 109.66069 33891 ft 457 kts 270°
2026-05-08 03:21 -5.96471 109.59691 33897 ft 457 kts 270°
2026-05-08 03:22 -5.96463 109.53314 33890 ft 456 kts 270°
2026-05-08 03:22 -5.96449 109.46943 33896 ft 456 kts 270°
2026-05-08 03:23 -5.96444 109.40561 33892 ft 457 kts 270°
2026-05-08 03:23 -5.96432 109.34184 33895 ft 457 kts 271°
2026-05-08 03:24 -5.96417 109.27806 33897 ft 457 kts 271°
2026-05-08 03:24 -5.96402 109.21427 33896 ft 457 kts 271°
2026-05-08 03:25 -5.96401 109.15045 33893 ft 457 kts 271°
2026-05-08 03:25 -5.96390 109.08662 33888 ft 457 kts 271°
2026-05-08 03:26 -5.96375 109.02277 33896 ft 457 kts 271°
2026-05-08 03:26 -5.96361 108.95884 33894 ft 458 kts 271°
2026-05-08 03:27 -5.96345 108.89492 33891 ft 458 kts 271°
2026-05-08 03:27 -5.96326 108.83097 33884 ft 458 kts 271°
2026-05-08 03:28 -5.96307 108.76694 33891 ft 458 kts 271°
2026-05-08 03:28 -5.96288 108.70289 33889 ft 459 kts 271°
2026-05-08 03:29 -5.96267 108.63882 33887 ft 459 kts 271°
2026-05-08 03:29 -5.96253 108.57471 33890 ft 459 kts 271°
2026-05-08 03:30 -5.96229 108.47849 33888 ft 460 kts 271°
2026-05-08 03:31 -5.96208 108.35001 33890 ft 460 kts 271°
2026-05-08 03:32 -5.96204 108.25360 33895 ft 460 kts 271°
2026-05-08 03:32 -5.96199 108.18934 33892 ft 460 kts 271°
2026-05-08 03:33 -5.96193 108.12502 33893 ft 461 kts 271°
2026-05-08 03:33 -5.96178 108.06067 33885 ft 461 kts 271°
2026-05-08 03:34 -5.96167 107.99669 33890 ft 461 kts 271°
2026-05-08 03:34 -5.96166 107.93229 33892 ft 461 kts 271°
2026-05-08 03:35 -5.96172 107.86782 33889 ft 461 kts 271°
2026-05-08 03:35 -5.96175 107.80343 33888 ft 461 kts 271°
2026-05-08 03:36 -5.96172 107.73894 33890 ft 462 kts 271°
2026-05-08 03:36 -5.96173 107.67445 33894 ft 462 kts 271°
2026-05-08 03:37 -5.96172 107.60998 33892 ft 462 kts 271°
2026-05-08 03:37 -5.96169 107.54549 33892 ft 462 kts 271°
2026-05-08 03:38 -5.96164 107.48093 33894 ft 462 kts 271°
2026-05-08 03:38 -5.96159 107.41641 33894 ft 462 kts 271°
2026-05-08 03:39 -5.96155 107.35189 33893 ft 462 kts 271°
2026-05-08 03:39 -5.96154 107.28778 33892 ft 462 kts 271°
2026-05-08 03:40 -5.96146 107.22320 33895 ft 462 kts 271°
2026-05-08 03:40 -5.96132 107.15872 33897 ft 462 kts 271°
2026-05-08 03:41 -5.96070 107.10467 33893 ft 461 kts 276°
2026-05-08 03:41 -5.95517 107.07303 33890 ft 459 kts 287°
2026-05-08 03:41 -5.94381 107.04316 33891 ft 457 kts 298°
2026-05-08 03:41 -5.92709 107.01615 33887 ft 455 kts 309°
2026-05-08 03:42 -5.90566 106.99287 33878 ft 453 kts 320°
2026-05-08 03:42 -5.85614 106.95399 33874 ft 453 kts 323°
2026-05-08 03:43 -5.80625 106.91524 33866 ft 454 kts 323°
2026-05-08 03:43 -5.75636 106.87642 33868 ft 454 kts 323°
2026-05-08 03:44 -5.70634 106.83758 33866 ft 455 kts 323°
2026-05-08 03:44 -5.65626 106.79872 33872 ft 455 kts 323°
2026-05-08 03:45 -5.60622 106.75978 33875 ft 455 kts 323°
2026-05-08 03:45 -5.55621 106.72085 33880 ft 455 kts 323°
2026-05-08 03:46 -5.50608 106.68196 33888 ft 455 kts 324°
2026-05-08 03:46 -5.45632 106.64345 33888 ft 455 kts 324°
2026-05-08 03:47 -5.40612 106.60459 33884 ft 455 kts 324°
2026-05-08 03:47 -5.35599 106.56572 33891 ft 455 kts 324°
2026-05-08 03:48 -5.30588 106.52681 33891 ft 455 kts 324°
2026-05-08 03:48 -5.25576 106.48796 33888 ft 455 kts 324°
2026-05-08 03:49 -5.20564 106.44910 33891 ft 455 kts 324°
2026-05-08 03:49 -5.15549 106.41022 33898 ft 455 kts 324°
2026-05-08 03:50 -5.10530 106.37138 33898 ft 456 kts 324°
2026-05-08 03:50 -5.05518 106.33255 33896 ft 456 kts 324°
2026-05-08 03:51 -5.00496 106.29372 33901 ft 456 kts 324°
2026-05-08 03:51 -4.95478 106.25484 33897 ft 456 kts 324°
2026-05-08 03:52 -4.90464 106.21595 33897 ft 456 kts 324°
2026-05-08 03:52 -4.85477 106.17736 33904 ft 456 kts 324°
2026-05-08 03:53 -4.80449 106.13856 33903 ft 456 kts 324°
2026-05-08 03:53 -4.75425 106.09972 33904 ft 456 kts 324°
2026-05-08 03:54 -4.70402 106.06076 33903 ft 456 kts 324°
2026-05-08 03:54 -4.65378 106.02189 33904 ft 456 kts 324°
2026-05-08 03:55 -4.60346 105.98306 33896 ft 456 kts 324°
2026-05-08 03:55 -4.55318 105.94425 33900 ft 457 kts 324°
2026-05-08 03:56 -4.50286 105.90536 33895 ft 457 kts 324°
2026-05-08 03:56 -4.45256 105.86642 33897 ft 457 kts 324°
2026-05-08 03:57 -4.40226 105.82749 33898 ft 457 kts 324°
2026-05-08 03:57 -4.35192 105.78860 33897 ft 457 kts 324°
2026-05-08 03:58 -4.30154 105.74974 33896 ft 457 kts 324°
2026-05-08 03:58 -4.25115 105.71082 33894 ft 457 kts 324°
2026-05-08 03:59 -4.20082 105.67188 33897 ft 457 kts 324°
2026-05-08 03:59 -4.15041 105.63295 33899 ft 457 kts 324°
2026-05-08 04:00 -4.09995 105.59410 33892 ft 457 kts 324°
2026-05-08 04:00 -4.04949 105.55524 33897 ft 457 kts 324°
2026-05-08 04:01 -3.99907 105.51634 33900 ft 458 kts 324°
2026-05-08 04:01 -3.94868 105.47745 33904 ft 457 kts 324°
2026-05-08 04:02 -3.89827 105.43852 33900 ft 457 kts 324°
2026-05-08 04:02 -3.84790 105.39962 33900 ft 457 kts 324°
2026-05-08 04:03 -3.79781 105.36099 33901 ft 457 kts 324°
2026-05-08 04:03 -3.72215 105.30273 33903 ft 457 kts 324°
2026-05-08 04:04 -3.67172 105.26391 33899 ft 458 kts 324°
2026-05-08 04:04 -3.62125 105.22502 33898 ft 458 kts 324°
2026-05-08 04:05 -3.57073 105.18612 33894 ft 458 kts 324°
2026-05-08 04:05 -3.52026 105.14717 33896 ft 458 kts 324°
2026-05-08 04:06 -3.46975 105.10824 33897 ft 458 kts 324°
2026-05-08 04:06 -3.41919 105.06932 33894 ft 459 kts 324°
2026-05-08 04:07 -3.36856 105.03035 33895 ft 459 kts 324°
2026-05-08 04:07 -3.31792 104.99136 33897 ft 459 kts 324°
2026-05-08 04:08 -3.26726 104.95235 33899 ft 460 kts 324°
2026-05-08 04:08 -3.21650 104.91330 33899 ft 460 kts 324°
2026-05-08 04:09 -3.16577 104.87421 33898 ft 460 kts 324°
2026-05-08 04:09 -3.11499 104.83513 33903 ft 461 kts 324°
2026-05-08 04:10 -3.06424 104.79602 33903 ft 461 kts 324°
2026-05-08 04:10 -3.01338 104.75691 33904 ft 461 kts 324°
2026-05-08 04:11 -2.96253 104.71783 33904 ft 461 kts 324°
2026-05-08 04:11 -2.91167 104.67865 33907 ft 461 kts 324°
2026-05-08 04:12 -2.86269 104.63781 33905 ft 463 kts 317°
2026-05-08 04:12 -2.81631 104.59247 33905 ft 463 kts 317°
2026-05-08 04:13 -2.77054 104.54774 33901 ft 463 kts 317°
2026-05-08 04:13 -2.72437 104.50273 33903 ft 464 kts 317°
2026-05-08 04:14 -2.67789 104.45739 33906 ft 464 kts 317°
2026-05-08 04:14 -2.63195 104.41263 33906 ft 464 kts 317°
2026-05-08 04:15 -2.58571 104.36760 33904 ft 464 kts 317°
2026-05-08 04:15 -2.53945 104.32244 33904 ft 465 kts 317°
2026-05-08 04:16 -2.49317 104.27726 33904 ft 465 kts 317°
2026-05-08 04:16 -2.44676 104.23212 33903 ft 465 kts 317°
2026-05-08 04:17 -2.40036 104.18695 33904 ft 466 kts 317°
2026-05-08 04:17 -2.35398 104.14179 33904 ft 466 kts 317°
2026-05-08 04:18 -2.30756 104.09655 33904 ft 466 kts 317°
2026-05-08 04:18 -2.26112 104.05133 33908 ft 466 kts 317°
2026-05-08 04:19 -2.21466 104.00611 33903 ft 466 kts 317°
2026-05-08 04:19 -2.16822 103.96087 33910 ft 466 kts 317°
2026-05-08 04:20 -2.12186 103.91568 33914 ft 465 kts 317°
2026-05-08 04:20 -2.07517 103.87022 33917 ft 465 kts 317°
2026-05-08 04:21 -2.02889 103.82516 33915 ft 464 kts 317°
2026-05-08 04:21 -1.98265 103.78012 33917 ft 464 kts 317°
2026-05-08 04:22 -1.93649 103.73514 33919 ft 463 kts 317°
2026-05-08 04:22 -1.89040 103.69027 33922 ft 462 kts 317°
2026-05-08 04:23 -1.84436 103.64549 33920 ft 462 kts 317°
2026-05-08 04:23 -1.79832 103.60075 33923 ft 461 kts 317°
2026-05-08 04:24 -1.75228 103.55602 33917 ft 461 kts 317°
2026-05-08 04:24 -1.71412 103.51890 33914 ft 461 kts 317°
2026-05-08 04:25 -1.66819 103.47416 33913 ft 461 kts 317°
2026-05-08 04:25 -1.62226 103.42947 33913 ft 461 kts 317°
2026-05-08 04:26 -1.57631 103.38478 33914 ft 461 kts 317°
2026-05-08 04:26 -1.53035 103.34009 33912 ft 461 kts 317°
2026-05-08 04:27 -1.48442 103.29538 33912 ft 461 kts 316°
2026-05-08 04:27 -1.43847 103.25061 33913 ft 461 kts 316°
2026-05-08 04:28 -1.39285 103.20616 33913 ft 461 kts 316°
2026-05-08 04:28 -1.34653 103.16119 33913 ft 461 kts 317°
2026-05-08 04:29 -1.30052 103.11652 33913 ft 461 kts 316°
2026-05-08 04:29 -1.25450 103.07178 33916 ft 461 kts 316°
2026-05-08 04:30 -1.20851 103.02709 33914 ft 461 kts 316°
2026-05-08 04:30 -1.16257 102.98237 33919 ft 461 kts 316°
2026-05-08 04:31 -1.11668 102.93769 33913 ft 461 kts 317°
2026-05-08 04:31 -1.07070 102.89304 33916 ft 461 kts 317°
2026-05-08 04:32 -1.02477 102.84842 33916 ft 460 kts 317°
2026-05-08 04:32 -0.97918 102.80410 33915 ft 460 kts 317°
2026-05-08 04:33 -0.93324 102.75958 33921 ft 460 kts 317°
2026-05-08 04:33 -0.88729 102.71501 33914 ft 460 kts 317°
2026-05-08 04:34 -0.84134 102.67045 33908 ft 460 kts 317°
2026-05-08 04:34 -0.79545 102.62593 33912 ft 460 kts 317°
2026-05-08 04:35 -0.74950 102.58139 33906 ft 460 kts 317°
2026-05-08 04:35 -0.70357 102.53689 33908 ft 460 kts 317°
2026-05-08 04:36 -0.65756 102.49234 33907 ft 460 kts 317°
2026-05-08 04:36 -0.61165 102.44778 33903 ft 460 kts 317°
2026-05-08 04:37 -0.56571 102.40310 33902 ft 461 kts 317°
2026-05-08 04:37 -0.51977 102.35851 33895 ft 461 kts 317°
2026-05-08 04:38 -0.47381 102.31392 33895 ft 461 kts 317°
2026-05-08 04:38 -0.42784 102.26929 33892 ft 461 kts 317°
2026-05-08 04:39 -0.38182 102.22466 33891 ft 461 kts 317°
2026-05-08 04:39 -0.33609 102.18036 33888 ft 461 kts 317°
2026-05-08 04:40 -0.29010 102.13576 33889 ft 461 kts 317°
2026-05-08 04:40 -0.24421 102.09120 33886 ft 461 kts 317°
2026-05-08 04:41 -0.19813 102.04647 33888 ft 461 kts 317°
2026-05-08 04:41 -0.15207 102.00186 33882 ft 461 kts 317°
2026-05-08 04:42 -0.10609 101.95724 33884 ft 461 kts 317°
2026-05-08 04:42 -0.06012 101.91265 33879 ft 461 kts 317°
2026-05-08 04:43 -0.01412 101.86803 33880 ft 461 kts 317°
2026-05-08 04:43 0.03196 101.82339 33892 ft 462 kts 317°
2026-05-08 04:44 0.07812 101.77868 33875 ft 463 kts 317°
2026-05-08 04:44 0.12433 101.73377 33866 ft 464 kts 316°
2026-05-08 04:45 0.17067 101.68879 33863 ft 464 kts 317°
2026-05-08 04:45 0.21710 101.64390 33864 ft 465 kts 317°
2026-05-08 04:46 0.26356 101.59892 33869 ft 465 kts 317°
2026-05-08 04:46 0.30993 101.55383 33870 ft 465 kts 317°
2026-05-08 04:47 0.35638 101.50870 33875 ft 466 kts 317°
2026-05-08 04:47 0.40283 101.46363 33883 ft 466 kts 317°
2026-05-08 04:48 0.44963 101.41869 33880 ft 466 kts 318°
2026-05-08 04:48 0.49702 101.37524 33874 ft 465 kts 319°
2026-05-08 04:49 0.54540 101.33153 33872 ft 466 kts 319°
2026-05-08 04:49 0.59287 101.28812 33868 ft 466 kts 318°
2026-05-08 04:50 0.64059 101.24415 33869 ft 466 kts 318°
2026-05-08 04:50 0.68824 101.20015 33871 ft 466 kts 318°
2026-05-08 04:51 0.73599 101.15632 33870 ft 466 kts 319°
2026-05-08 04:51 0.78382 101.11251 33874 ft 466 kts 319°
2026-05-08 04:52 0.83159 101.06866 33874 ft 466 kts 318°
2026-05-08 04:52 0.87934 101.02478 33873 ft 466 kts 318°
2026-05-08 04:53 0.92706 100.98089 33872 ft 466 kts 318°
2026-05-08 04:53 0.97476 100.93699 33874 ft 466 kts 318°
2026-05-08 04:54 1.02254 100.89315 33875 ft 466 kts 319°
2026-05-08 04:54 1.07028 100.84933 33876 ft 466 kts 319°
2026-05-08 04:55 1.11794 100.80547 33878 ft 466 kts 318°
2026-05-08 04:55 1.16561 100.76159 33877 ft 466 kts 319°
2026-05-08 04:56 1.21333 100.71781 33882 ft 466 kts 319°
2026-05-08 04:56 1.26101 100.67397 33884 ft 465 kts 319°
2026-05-08 04:57 1.30864 100.63019 33879 ft 465 kts 319°
2026-05-08 04:57 1.35629 100.58640 33881 ft 465 kts 319°
2026-05-08 04:58 1.40396 100.54256 33878 ft 465 kts 318°
2026-05-08 04:58 1.45160 100.49876 33882 ft 465 kts 319°
2026-05-08 04:59 1.49927 100.45500 33886 ft 465 kts 319°
2026-05-08 04:59 1.54665 100.41148 33884 ft 466 kts 318°
2026-05-08 05:00 1.59462 100.36732 33882 ft 466 kts 318°
2026-05-08 05:00 1.64230 100.32349 33884 ft 466 kts 318°
2026-05-08 05:01 1.68964 100.27986 33889 ft 466 kts 318°
2026-05-08 05:01 1.73736 100.23603 33895 ft 466 kts 319°
2026-05-08 05:02 1.78507 100.19220 33896 ft 466 kts 318°
2026-05-08 05:02 1.83269 100.14834 33893 ft 466 kts 318°
2026-05-08 05:03 1.88038 100.10443 33891 ft 466 kts 318°
2026-05-08 05:03 1.92805 100.06053 33888 ft 466 kts 318°
2026-05-08 05:04 1.97570 100.01662 33894 ft 466 kts 318°
2026-05-08 05:04 2.02346 99.97276 33895 ft 466 kts 318°
2026-05-08 05:05 2.07128 99.92888 33897 ft 467 kts 318°
2026-05-08 05:05 2.11904 99.88489 33897 ft 467 kts 318°
2026-05-08 05:06 2.16686 99.84090 33901 ft 467 kts 318°
2026-05-08 05:06 2.21464 99.79689 33904 ft 467 kts 318°
2026-05-08 05:07 2.26244 99.75283 33912 ft 467 kts 318°
2026-05-08 05:07 2.31031 99.70882 33914 ft 468 kts 318°
2026-05-08 05:08 2.35825 99.66477 33911 ft 468 kts 318°
2026-05-08 05:08 2.40611 99.62063 33914 ft 468 kts 318°
2026-05-08 05:09 2.45399 99.57644 33923 ft 469 kts 318°
2026-05-08 05:09 2.50199 99.53231 33922 ft 469 kts 318°
2026-05-08 05:10 2.57403 99.46610 33925 ft 469 kts 318°
2026-05-08 05:11 2.62160 99.42215 33925 ft 469 kts 318°
2026-05-08 05:11 2.66948 99.37790 33929 ft 469 kts 318°
2026-05-08 05:12 2.71742 99.33376 33926 ft 468 kts 319°
2026-05-08 05:12 2.76538 99.28970 33926 ft 468 kts 318°
2026-05-08 05:13 2.80517 99.25297 33923 ft 468 kts 318°
2026-05-08 05:13 2.85300 99.20881 33921 ft 468 kts 318°
2026-05-08 05:14 2.90086 99.16468 33923 ft 468 kts 318°
2026-05-08 05:14 2.94878 99.12057 33922 ft 468 kts 318°
2026-05-08 05:15 2.99654 99.07647 33917 ft 468 kts 318°
2026-05-08 05:15 3.04443 99.03235 33918 ft 467 kts 319°
2026-05-08 05:16 3.09224 98.98828 33916 ft 467 kts 319°
2026-05-08 05:16 3.13998 98.94422 33915 ft 467 kts 318°
2026-05-08 05:17 3.18772 98.90010 33913 ft 467 kts 318°
2026-05-08 05:17 3.23545 98.85611 33914 ft 467 kts 319°
2026-05-08 05:18 3.28323 98.81206 33912 ft 467 kts 319°
2026-05-08 05:18 3.33099 98.76808 33902 ft 466 kts 319°
2026-05-08 05:19 3.37870 98.72404 33899 ft 466 kts 318°
2026-05-08 05:19 3.42635 98.67998 33898 ft 466 kts 318°
2026-05-08 05:20 3.47404 98.63596 33892 ft 466 kts 318°
2026-05-08 05:20 3.51394 98.58555 33889 ft 468 kts 299°
2026-05-08 05:21 3.54169 98.52602 33887 ft 469 kts 295°
2026-05-08 05:21 3.56877 98.46672 33891 ft 469 kts 295°
2026-05-08 05:22 3.59585 98.40774 33883 ft 469 kts 295°
2026-05-08 05:22 3.62300 98.34834 33888 ft 469 kts 295°
2026-05-08 05:23 3.65011 98.28880 33894 ft 469 kts 295°
2026-05-08 05:23 3.67718 98.22942 33903 ft 469 kts 295°
2026-05-08 05:24 3.70427 98.16999 33905 ft 469 kts 295°
2026-05-08 05:24 3.73134 98.11061 33915 ft 469 kts 295°
2026-05-08 05:25 3.75845 98.05128 33923 ft 468 kts 295°
2026-05-08 05:25 3.78548 97.99205 33923 ft 468 kts 295°
2026-05-08 05:26 3.81253 97.93281 33934 ft 467 kts 295°
2026-05-08 05:26 3.83947 97.87365 33939 ft 467 kts 295°
2026-05-08 05:27 3.86642 97.81441 33953 ft 467 kts 295°
2026-05-08 05:27 3.89333 97.75527 33955 ft 467 kts 295°
2026-05-08 05:28 3.92037 97.69596 33963 ft 467 kts 295°
2026-05-08 05:28 3.94736 97.63675 33968 ft 468 kts 295°
2026-05-08 05:29 3.97435 97.57743 33968 ft 468 kts 295°
2026-05-08 05:29 4.00131 97.51812 33975 ft 468 kts 295°
2026-05-08 05:30 4.02830 97.45871 33981 ft 469 kts 295°
2026-05-08 05:30 4.05532 97.39931 33982 ft 469 kts 295°
2026-05-08 05:31 4.08243 97.33987 33978 ft 469 kts 295°
2026-05-08 05:31 4.10954 97.28046 33982 ft 469 kts 295°
2026-05-08 05:32 4.13657 97.22097 33980 ft 469 kts 295°
2026-05-08 05:32 4.16355 97.16141 33978 ft 470 kts 295°
2026-05-08 05:33 4.19062 97.10182 33971 ft 470 kts 295°
2026-05-08 05:33 4.21751 97.04266 33976 ft 470 kts 295°
2026-05-08 05:34 4.24459 96.98309 33972 ft 470 kts 295°
2026-05-08 05:34 4.27172 96.92353 33970 ft 470 kts 295°
2026-05-08 05:35 4.29879 96.86383 33964 ft 470 kts 295°
2026-05-08 05:35 4.32584 96.80419 33962 ft 471 kts 295°
2026-05-08 05:36 4.35294 96.74442 33959 ft 471 kts 295°
2026-05-08 05:36 4.38002 96.68461 33957 ft 471 kts 295°
2026-05-08 05:37 4.40732 96.62441 33953 ft 471 kts 295°
2026-05-08 05:37 4.43424 96.56502 33947 ft 471 kts 295°
2026-05-08 05:38 4.46137 96.50518 33941 ft 471 kts 295°
2026-05-08 05:38 4.48853 96.44540 33937 ft 471 kts 295°
2026-05-08 05:39 4.51566 96.38562 33931 ft 471 kts 295°
2026-05-08 05:39 4.54276 96.32586 33936 ft 471 kts 295°
2026-05-08 05:40 4.56980 96.26606 33924 ft 471 kts 295°
2026-05-08 05:40 4.59682 96.20621 33921 ft 471 kts 295°
2026-05-08 05:41 4.62388 96.14643 33919 ft 471 kts 295°
2026-05-08 05:41 4.65094 96.08663 33915 ft 471 kts 295°
2026-05-08 05:42 4.67800 96.02683 33918 ft 471 kts 295°
2026-05-08 05:42 4.70510 95.96701 33917 ft 471 kts 295°
2026-05-08 05:43 4.73218 95.90721 33914 ft 471 kts 295°
2026-05-08 05:43 4.75918 95.84744 33910 ft 471 kts 295°
2026-05-08 05:44 4.78617 95.78763 33910 ft 471 kts 295°
2026-05-08 05:44 4.81315 95.72780 33903 ft 471 kts 295°
2026-05-08 05:45 4.84017 95.66802 33910 ft 471 kts 295°
2026-05-08 05:45 4.86714 95.60813 33907 ft 471 kts 295°
2026-05-08 05:46 4.89417 95.54830 33905 ft 471 kts 295°
2026-05-08 05:46 4.92122 95.48850 33900 ft 471 kts 295°
2026-05-08 05:47 4.94805 95.42908 33901 ft 471 kts 295°
2026-05-08 05:47 4.97501 95.36926 33898 ft 470 kts 295°
2026-05-08 05:48 5.00191 95.30950 33893 ft 470 kts 295°
2026-05-08 05:48 5.02903 95.24940 33895 ft 470 kts 295°
2026-05-08 05:49 5.05571 95.19011 33895 ft 469 kts 295°
2026-05-08 05:49 5.08260 95.13051 33892 ft 469 kts 295°
2026-05-08 05:50 5.10944 95.07089 33891 ft 469 kts 295°
2026-05-08 05:50 5.13629 95.01135 33890 ft 468 kts 295°
2026-05-08 05:51 5.16314 94.95185 33887 ft 468 kts 295°
2026-05-08 05:51 5.18995 94.89235 33884 ft 468 kts 295°
2026-05-08 05:52 5.21670 94.83281 33885 ft 468 kts 295°
2026-05-08 05:52 5.24340 94.77331 33884 ft 468 kts 295°
2026-05-08 05:53 5.27013 94.71382 33878 ft 468 kts 295°
2026-05-08 05:53 5.29686 94.65440 33882 ft 468 kts 295°
2026-05-08 05:54 5.32361 94.59492 33882 ft 467 kts 295°
2026-05-08 05:54 5.35030 94.53548 33882 ft 467 kts 295°
2026-05-08 05:55 5.37695 94.47600 33880 ft 467 kts 295°
2026-05-08 05:55 5.40355 94.41662 33887 ft 466 kts 295°
2026-05-08 05:56 5.43020 94.35731 33889 ft 466 kts 295°
2026-05-08 05:56 5.45666 94.29846 33889 ft 465 kts 295°
2026-05-08 05:57 5.48317 94.23927 33890 ft 465 kts 295°
2026-05-08 05:57 5.50965 94.18008 33892 ft 464 kts 295°
2026-05-08 05:58 5.53616 94.12102 33893 ft 464 kts 295°
2026-05-08 05:58 5.56266 94.06203 33889 ft 464 kts 295°
2026-05-08 05:59 5.58914 94.00298 33889 ft 464 kts 295°
2026-05-08 05:59 5.61556 93.94395 33886 ft 464 kts 295°
2026-05-08 06:00 5.63751 93.89486 33879 ft 464 kts 295°
2026-05-08 06:00 5.66390 93.83580 33879 ft 464 kts 295°
2026-05-08 06:01 5.69031 93.77671 33885 ft 464 kts 295°
2026-05-08 06:01 5.71680 93.71762 33885 ft 464 kts 295°
2026-05-08 06:02 5.74327 93.65849 33881 ft 464 kts 295°
2026-05-08 06:02 5.76963 93.59925 33882 ft 464 kts 295°
2026-05-08 06:03 5.79611 93.54007 33881 ft 464 kts 295°
2026-05-08 06:03 5.82256 93.48092 33881 ft 465 kts 295°
2026-05-08 06:04 5.84887 93.42211 33883 ft 465 kts 295°
2026-05-08 06:04 5.87527 93.36290 33881 ft 464 kts 295°
2026-05-08 06:05 5.90164 93.30371 33883 ft 464 kts 295°
2026-05-08 06:05 5.92803 93.24451 33890 ft 464 kts 295°
2026-05-08 06:06 5.95446 93.18544 33892 ft 464 kts 295°
2026-05-08 06:06 5.98087 93.12632 33891 ft 463 kts 294°
2026-05-08 06:07 6.00719 93.06725 33892 ft 463 kts 295°
2026-05-08 06:07 6.03393 93.00843 33890 ft 463 kts 295°
2026-05-08 06:08 6.06093 92.94975 33891 ft 462 kts 295°
2026-05-08 06:08 6.08773 92.89106 33889 ft 462 kts 295°
2026-05-08 06:09 6.11449 92.83230 33889 ft 462 kts 295°
2026-05-08 06:09 6.14117 92.77355 33886 ft 463 kts 295°
2026-05-08 06:10 6.16798 92.71470 33883 ft 463 kts 295°
2026-05-08 06:10 6.19472 92.65594 33887 ft 463 kts 295°
2026-05-08 06:11 6.22149 92.59705 33882 ft 463 kts 295°
2026-05-08 06:11 6.24826 92.53828 33885 ft 463 kts 295°
2026-05-08 06:12 6.27483 92.47978 33878 ft 463 kts 295°
2026-05-08 06:12 6.30158 92.42090 33881 ft 463 kts 295°
2026-05-08 06:13 6.32837 92.36202 33882 ft 463 kts 295°
2026-05-08 06:13 6.35514 92.30318 33880 ft 463 kts 295°
2026-05-08 06:14 6.38189 92.24424 33883 ft 463 kts 295°
2026-05-08 06:14 6.40863 92.18534 33883 ft 463 kts 295°
2026-05-08 06:15 6.43536 92.12631 33879 ft 464 kts 295°
2026-05-08 06:15 6.46211 92.06736 33878 ft 464 kts 295°
2026-05-08 06:16 6.48891 92.00829 33874 ft 464 kts 295°
2026-05-08 06:16 6.51567 91.94927 33880 ft 464 kts 295°
2026-05-08 06:17 6.55578 91.86064 33882 ft 464 kts 295°
2026-05-08 06:17 6.58248 91.80161 33885 ft 464 kts 295°
2026-05-08 06:18 6.60926 91.74257 33885 ft 464 kts 295°
2026-05-08 06:18 6.63605 91.68360 33886 ft 464 kts 295°
2026-05-08 06:19 6.66269 91.62457 33885 ft 463 kts 295°
2026-05-08 06:19 6.68930 91.56553 33880 ft 463 kts 295°
2026-05-08 06:20 6.71605 91.50654 33881 ft 463 kts 295°
2026-05-08 06:20 6.74274 91.44758 33883 ft 463 kts 295°
2026-05-08 06:21 6.76936 91.38854 33885 ft 463 kts 295°
2026-05-08 06:21 6.79592 91.32954 33886 ft 463 kts 295°
2026-05-08 06:22 6.82252 91.27055 33881 ft 463 kts 295°
2026-05-08 06:22 6.84918 91.21159 33883 ft 463 kts 295°
2026-05-08 06:23 6.87582 91.15261 33881 ft 463 kts 295°
2026-05-08 06:23 6.90245 91.09362 33880 ft 463 kts 295°
2026-05-08 06:24 6.92907 91.03458 33878 ft 463 kts 295°
2026-05-08 06:24 6.95568 90.97558 33879 ft 463 kts 295°
2026-05-08 06:25 6.98226 90.91650 33877 ft 463 kts 295°
2026-05-08 06:25 7.00863 90.85776 33879 ft 464 kts 295°
2026-05-08 06:26 7.03519 90.79859 33879 ft 464 kts 295°
2026-05-08 06:26 7.06181 90.73948 33877 ft 464 kts 295°
2026-05-08 06:27 7.08840 90.68029 33876 ft 464 kts 295°
2026-05-08 06:27 7.11497 90.62116 33880 ft 464 kts 295°
2026-05-08 06:28 7.14156 90.56195 33881 ft 464 kts 295°
2026-05-08 06:28 7.16815 90.50280 33883 ft 464 kts 295°
2026-05-08 06:29 7.19468 90.44367 33880 ft 464 kts 295°
2026-05-08 06:29 7.22122 90.38450 33882 ft 463 kts 295°
2026-05-08 06:30 7.24774 90.32531 33880 ft 463 kts 295°
2026-05-08 06:30 7.27427 90.26622 33879 ft 463 kts 295°
2026-05-08 06:31 7.30077 90.20707 33874 ft 463 kts 295°
2026-05-08 06:31 7.32728 90.14801 33878 ft 463 kts 295°
2026-05-08 06:32 7.35370 90.08883 33880 ft 463 kts 294°
2026-05-08 06:32 7.38013 90.02972 33880 ft 463 kts 294°
2026-05-08 06:33 7.40658 89.97061 33877 ft 463 kts 295°
2026-05-08 06:33 7.43314 89.91155 33874 ft 463 kts 295°
2026-05-08 06:34 7.45965 89.85251 33876 ft 462 kts 294°
2026-05-08 06:34 7.48579 89.79380 33878 ft 462 kts 294°
2026-05-08 06:35 7.51203 89.73468 33877 ft 462 kts 294°
2026-05-08 06:35 7.53837 89.67565 33879 ft 462 kts 295°
2026-05-08 06:36 7.56477 89.61668 33878 ft 461 kts 295°
2026-05-08 06:36 7.59111 89.55770 33878 ft 461 kts 294°
2026-05-08 06:37 7.61739 89.49873 33875 ft 461 kts 294°
2026-05-08 06:37 7.64363 89.43972 33877 ft 461 kts 294°
2026-05-08 06:38 7.66989 89.38078 33877 ft 461 kts 295°
2026-05-08 06:38 7.69616 89.32185 33873 ft 461 kts 295°
2026-05-08 06:39 7.72278 89.26311 33871 ft 460 kts 295°
2026-05-08 06:39 7.74969 89.20457 33871 ft 460 kts 295°
2026-05-08 06:40 7.77658 89.14602 33870 ft 460 kts 295°
2026-05-08 06:40 7.80335 89.08741 33869 ft 460 kts 295°
2026-05-08 06:41 7.83006 89.02875 33867 ft 460 kts 295°
2026-05-08 06:41 7.85672 88.97009 33871 ft 460 kts 295°
2026-05-08 06:42 7.88345 88.91144 33863 ft 460 kts 295°
2026-05-08 06:42 7.91023 88.85279 33864 ft 460 kts 295°
2026-05-08 06:43 7.93700 88.79410 33861 ft 461 kts 295°
2026-05-08 06:43 7.96366 88.73533 33860 ft 461 kts 295°
2026-05-08 06:44 7.99025 88.67689 33861 ft 461 kts 295°
2026-05-08 06:44 8.01700 88.61802 33858 ft 462 kts 295°
2026-05-08 06:45 8.04374 88.55912 33861 ft 462 kts 295°
2026-05-08 06:45 8.07048 88.50026 33862 ft 462 kts 295°
2026-05-08 06:46 8.09725 88.44134 33862 ft 462 kts 295°
2026-05-08 06:46 8.12395 88.38244 33866 ft 462 kts 294°
2026-05-08 06:47 8.15067 88.32353 33867 ft 461 kts 294°
2026-05-08 06:47 8.17740 88.26465 33868 ft 461 kts 294°
2026-05-08 06:48 8.19961 88.21571 33865 ft 461 kts 294°
2026-05-08 06:48 8.22626 88.15684 33862 ft 461 kts 294°
2026-05-08 06:49 8.25290 88.09795 33867 ft 461 kts 294°
2026-05-08 06:49 8.27950 88.03906 33866 ft 461 kts 294°
2026-05-08 06:50 8.30615 87.98019 33861 ft 461 kts 294°
2026-05-08 06:50 8.33283 87.92131 33863 ft 461 kts 294°
2026-05-08 06:51 8.35943 87.86242 33858 ft 461 kts 294°
2026-05-08 06:51 8.38604 87.80344 33860 ft 461 kts 294°
2026-05-08 06:52 8.41260 87.74443 33859 ft 462 kts 294°
2026-05-08 06:52 8.43920 87.68543 33856 ft 462 kts 294°
2026-05-08 06:53 8.46588 87.62637 33857 ft 462 kts 294°
2026-05-08 06:53 8.49250 87.56726 33858 ft 462 kts 294°
2026-05-08 06:54 8.51913 87.50810 33856 ft 463 kts 294°
2026-05-08 06:54 8.54581 87.44895 33857 ft 463 kts 294°
2026-05-08 06:55 8.57252 87.38978 33859 ft 463 kts 294°
2026-05-08 06:55 8.59915 87.33056 33862 ft 463 kts 294°
2026-05-08 06:56 8.62578 87.27137 33864 ft 463 kts 294°
2026-05-08 06:56 8.65225 87.21262 33867 ft 462 kts 294°
2026-05-08 06:57 8.67884 87.15348 33867 ft 462 kts 294°
2026-05-08 06:57 8.70542 87.09431 33860 ft 462 kts 294°
2026-05-08 06:58 8.73199 87.03518 33864 ft 462 kts 294°
2026-05-08 06:58 8.75853 86.97599 33861 ft 462 kts 294°
2026-05-08 06:59 8.78503 86.91676 33858 ft 462 kts 294°
2026-05-08 06:59 8.81158 86.85756 33852 ft 463 kts 294°
2026-05-08 07:00 8.83819 86.79833 33849 ft 463 kts 294°
2026-05-08 07:00 8.86473 86.73900 33850 ft 463 kts 294°
2026-05-08 07:01 8.89125 86.67965 33858 ft 463 kts 294°
2026-05-08 07:01 8.91778 86.62029 33855 ft 463 kts 294°
2026-05-08 07:02 8.94440 86.56096 33854 ft 463 kts 294°
2026-05-08 07:02 8.97080 86.50194 33856 ft 464 kts 294°
2026-05-08 07:03 8.99729 86.44245 33853 ft 464 kts 294°
2026-05-08 07:03 9.02384 86.38299 33851 ft 464 kts 294°
2026-05-08 07:04 9.05047 86.32350 33848 ft 464 kts 294°
2026-05-08 07:04 9.07710 86.26389 33845 ft 465 kts 294°
2026-05-08 07:05 9.10364 86.20424 33843 ft 465 kts 294°
2026-05-08 07:05 9.13023 86.14448 33845 ft 466 kts 294°
2026-05-08 07:06 9.15684 86.08474 33851 ft 466 kts 294°
2026-05-08 07:06 9.18343 86.02504 33854 ft 465 kts 294°
2026-05-08 07:07 9.20996 85.96538 33861 ft 465 kts 294°
2026-05-08 07:07 9.23623 85.90616 33860 ft 464 kts 294°
2026-05-08 07:08 9.26285 85.84669 33858 ft 464 kts 294°
2026-05-08 07:08 9.29018 85.78761 33862 ft 463 kts 295°
2026-05-08 07:09 9.31785 85.72874 33857 ft 463 kts 295°
2026-05-08 07:09 9.34528 85.66991 33860 ft 462 kts 295°
2026-05-08 07:10 9.37260 85.61100 33853 ft 462 kts 295°
2026-05-08 07:10 9.39988 85.55212 33851 ft 462 kts 295°
2026-05-08 07:11 9.42705 85.49319 33848 ft 462 kts 295°
2026-05-08 07:11 9.45429 85.43424 33845 ft 462 kts 295°
2026-05-08 07:12 9.48164 85.37522 33841 ft 463 kts 295°
2026-05-08 07:12 9.50894 85.31613 33843 ft 463 kts 295°
2026-05-08 07:13 9.53624 85.25700 33841 ft 463 kts 294°
2026-05-08 07:13 9.56352 85.19786 33846 ft 463 kts 294°
2026-05-08 07:14 9.59081 85.13870 33849 ft 463 kts 294°
2026-05-08 07:14 9.61814 85.07956 33852 ft 463 kts 294°
2026-05-08 07:15 9.64541 85.02045 33848 ft 463 kts 294°
2026-05-08 07:15 9.67267 84.96134 33852 ft 463 kts 294°
2026-05-08 07:16 9.69984 84.90223 33848 ft 462 kts 294°
2026-05-08 07:16 9.72698 84.84313 33851 ft 462 kts 294°
2026-05-08 07:17 9.75416 84.78413 33853 ft 462 kts 294°
2026-05-08 07:17 9.78128 84.72512 33853 ft 461 kts 294°
2026-05-08 07:18 9.80835 84.66612 33851 ft 461 kts 294°
2026-05-08 07:18 9.83544 84.60721 33847 ft 461 kts 294°
2026-05-08 07:19 9.86252 84.54833 33846 ft 461 kts 294°
2026-05-08 07:19 9.88945 84.48941 33848 ft 460 kts 294°
2026-05-08 07:20 9.91644 84.43056 33845 ft 460 kts 294°
2026-05-08 07:20 9.94347 84.37173 33843 ft 460 kts 294°
2026-05-08 07:21 9.97045 84.31288 33838 ft 460 kts 294°
2026-05-08 07:21 9.99742 84.25398 33832 ft 460 kts 294°
2026-05-08 07:22 10.02433 84.19498 33828 ft 461 kts 294°
2026-05-08 07:22 10.05128 84.13593 33825 ft 461 kts 294°
2026-05-08 07:23 10.07807 84.07721 33822 ft 462 kts 294°
2026-05-08 07:23 10.10516 84.01809 33823 ft 462 kts 294°
2026-05-08 07:24 10.13229 83.95889 33825 ft 462 kts 294°
2026-05-08 07:24 10.15930 83.89965 33829 ft 462 kts 294°
2026-05-08 07:25 10.18621 83.84040 33826 ft 462 kts 294°
2026-05-08 07:26 10.22672 83.75153 33832 ft 462 kts 294°
2026-05-08 07:26 10.25368 83.69235 33836 ft 462 kts 294°
2026-05-08 07:27 10.28057 83.63307 33834 ft 462 kts 294°
2026-05-08 07:27 10.30748 83.57393 33832 ft 462 kts 294°
2026-05-08 07:28 10.33444 83.51476 33833 ft 461 kts 294°
2026-05-08 07:28 10.36125 83.45556 33831 ft 461 kts 294°
2026-05-08 07:29 10.38806 83.39639 33829 ft 461 kts 294°
2026-05-08 07:29 10.41496 83.33731 33824 ft 461 kts 294°
2026-05-08 07:30 10.44184 83.27817 33823 ft 461 kts 294°
2026-05-08 07:30 10.46860 83.21902 33820 ft 461 kts 294°
2026-05-08 07:31 10.49545 83.15979 33820 ft 461 kts 295°
2026-05-08 07:31 10.52225 83.10057 33821 ft 461 kts 295°
2026-05-08 07:32 10.54904 83.04133 33816 ft 461 kts 295°
2026-05-08 07:32 10.57581 82.98209 33817 ft 461 kts 295°
2026-05-08 07:33 10.60241 82.92321 33813 ft 462 kts 295°
2026-05-08 07:33 10.62921 82.86387 33814 ft 462 kts 295°
2026-05-08 07:34 10.65604 82.80454 33816 ft 462 kts 295°
2026-05-08 07:34 10.68300 82.74531 33818 ft 462 kts 295°
2026-05-08 07:35 10.70998 82.68599 33820 ft 462 kts 295°
2026-05-08 07:35 10.73688 82.62665 33823 ft 462 kts 295°
2026-05-08 07:36 10.76371 82.56735 33823 ft 462 kts 295°
2026-05-08 07:36 10.79053 82.50806 33827 ft 461 kts 295°
2026-05-08 07:37 10.81280 82.45883 33829 ft 461 kts 295°
2026-05-08 07:37 10.83961 82.39962 33834 ft 460 kts 295°
2026-05-08 07:38 10.86625 82.34047 33836 ft 460 kts 295°
2026-05-08 07:38 10.89287 82.28143 33841 ft 459 kts 295°
2026-05-08 07:39 10.91956 82.22258 33845 ft 458 kts 295°
2026-05-08 07:39 10.94612 82.16376 33845 ft 457 kts 295°
2026-05-08 07:40 10.97252 82.10507 33844 ft 456 kts 295°
2026-05-08 07:40 10.99887 82.04645 33842 ft 455 kts 295°
2026-05-08 07:41 11.02524 81.98782 33836 ft 455 kts 295°
2026-05-08 07:41 11.05157 81.92931 33841 ft 455 kts 295°
2026-05-08 07:42 11.07786 81.87075 33837 ft 454 kts 294°
2026-05-08 07:42 11.10417 81.81226 33833 ft 454 kts 294°
2026-05-08 07:43 11.13043 81.75381 33835 ft 454 kts 294°
2026-05-08 07:43 11.15666 81.69538 33833 ft 454 kts 294°
2026-05-08 07:44 11.18290 81.63692 33833 ft 454 kts 294°
2026-05-08 07:44 11.20893 81.57879 33827 ft 454 kts 294°
2026-05-08 07:45 11.23518 81.52026 33826 ft 454 kts 294°
2026-05-08 07:45 11.26136 81.46176 33829 ft 454 kts 294°
2026-05-08 07:46 11.28755 81.40318 33831 ft 454 kts 294°
2026-05-08 07:46 11.31372 81.34464 33834 ft 454 kts 294°
2026-05-08 07:47 11.33990 81.28617 33839 ft 453 kts 293°
2026-05-08 07:47 11.36598 81.22773 33839 ft 453 kts 293°
2026-05-08 07:48 11.39203 81.16933 33840 ft 452 kts 293°
2026-05-08 07:48 11.41807 81.11099 33841 ft 452 kts 293°
2026-05-08 07:49 11.44401 81.05272 33837 ft 452 kts 293°
2026-05-08 07:49 11.46996 80.99439 33837 ft 452 kts 293°
2026-05-08 07:50 11.49603 80.93603 33834 ft 452 kts 293°
2026-05-08 07:50 11.52206 80.87766 33830 ft 452 kts 293°
2026-05-08 07:51 11.54803 80.81921 33827 ft 453 kts 293°
2026-05-08 07:51 11.57405 80.76069 33827 ft 453 kts 293°
2026-05-08 07:52 11.59999 80.70250 33829 ft 454 kts 293°
2026-05-08 07:52 11.62602 80.64382 33826 ft 454 kts 293°
2026-05-08 07:53 11.65200 80.58500 33828 ft 455 kts 293°
2026-05-08 07:53 11.67808 80.52618 33825 ft 455 kts 293°
2026-05-08 07:54 11.70424 80.46723 33824 ft 456 kts 293°
2026-05-08 07:54 11.73039 80.40825 33821 ft 457 kts 293°
2026-05-08 07:55 11.75659 80.34911 33821 ft 458 kts 293°
2026-05-08 07:55 11.78274 80.28985 33823 ft 458 kts 293°
2026-05-08 07:56 11.80887 80.23056 33830 ft 458 kts 293°
2026-05-08 07:56 11.83502 80.17129 33838 ft 458 kts 293°
2026-05-08 07:57 11.86120 80.11199 33841 ft 458 kts 293°
2026-05-08 07:57 11.88724 80.05262 33842 ft 458 kts 293°
2026-05-08 07:58 11.91311 79.99323 33844 ft 458 kts 293°
2026-05-08 07:58 11.93895 79.93384 33848 ft 458 kts 293°
2026-05-08 07:59 11.96480 79.87442 33849 ft 458 kts 293°
2026-05-08 07:59 11.99064 79.81507 33854 ft 457 kts 293°
2026-05-08 08:00 12.01649 79.75570 33850 ft 457 kts 293°
2026-05-08 08:00 12.04223 79.69641 33853 ft 456 kts 292°
2026-05-08 08:01 12.06796 79.63719 33860 ft 456 kts 292°
2026-05-08 08:01 12.09373 79.57805 33859 ft 455 kts 293°
2026-05-08 08:02 12.12036 79.51942 33859 ft 454 kts 294°
2026-05-08 08:02 12.14730 79.46110 33856 ft 453 kts 294°
2026-05-08 08:03 12.17403 79.40281 33856 ft 453 kts 294°
2026-05-08 08:03 12.20058 79.34449 33858 ft 452 kts 293°
2026-05-08 08:04 12.22701 79.28613 33851 ft 452 kts 293°
2026-05-08 08:04 12.25345 79.22784 33849 ft 452 kts 293°
2026-05-08 08:05 12.27980 79.16986 33856 ft 453 kts 294°
2026-05-08 08:05 12.30631 79.11147 33848 ft 453 kts 293°
2026-05-08 08:06 12.33281 79.05295 33851 ft 453 kts 293°
2026-05-08 08:06 12.35928 78.99447 33856 ft 453 kts 294°
2026-05-08 08:07 12.38577 78.93603 33868 ft 452 kts 294°
2026-05-08 08:07 12.41221 78.87770 33874 ft 451 kts 294°
2026-05-08 08:08 12.43854 78.81944 33885 ft 450 kts 294°
2026-05-08 08:08 12.46479 78.76142 33888 ft 449 kts 294°
2026-05-08 08:09 12.49101 78.70343 33899 ft 448 kts 294°
2026-05-08 08:09 12.51706 78.64565 33900 ft 447 kts 294°
2026-05-08 08:10 12.54322 78.58752 33883 ft 456 kts 294°
2026-05-08 08:10 12.56999 78.52818 33888 ft 461 kts 294°
2026-05-08 08:11 12.59669 78.46897 33890 ft 461 kts 294°
2026-05-08 08:11 12.62354 78.40933 33895 ft 461 kts 294°
2026-05-08 08:12 12.65040 78.34960 33904 ft 462 kts 294°
2026-05-08 08:12 12.67729 78.28992 33914 ft 462 kts 294°
2026-05-08 08:13 12.70410 78.23011 33926 ft 462 kts 294°
2026-05-08 08:13 12.73088 78.17032 33927 ft 462 kts 294°
2026-05-08 08:14 12.75772 78.11044 33933 ft 462 kts 294°
2026-05-08 08:14 12.78455 78.05059 33941 ft 463 kts 294°
2026-05-08 08:15 12.81148 77.99060 33944 ft 463 kts 294°
2026-05-08 08:15 12.83833 77.93060 33954 ft 464 kts 293°
2026-05-08 08:16 12.87276 77.87522 33958 ft 466 kts 317°
2026-05-08 08:16 12.89956 77.85658 33960 ft 468 kts 334°
2026-05-08 08:16 12.92943 77.84393 33961 ft 468 kts 338°
2026-05-08 08:17 12.99019 77.81954 33958 ft 470 kts 338°
2026-05-08 08:17 13.05070 77.79540 33969 ft 457 kts 338°
2026-05-08 08:17 13.07935 77.78238 33968 ft 442 kts 326°
2026-05-08 08:18 13.10174 77.76193 33973 ft 425 kts 304°
2026-05-08 08:18 13.11446 77.73546 33974 ft 407 kts 282°
2026-05-08 08:18 13.11776 77.70729 33969 ft 392 kts 267°
2026-05-08 08:18 13.11572 77.67983 33974 ft 380 kts 261°
2026-05-08 08:19 13.11195 77.65330 33972 ft 373 kts 260°
2026-05-08 08:19 13.10624 77.60075 33971 ft 370 kts 265°
2026-05-08 08:20 13.10520 77.54792 33965 ft 371 kts 269°
2026-05-08 08:20 13.10619 77.49491 33959 ft 372 kts 269°
2026-05-08 08:21 13.10803 77.44196 33949 ft 373 kts 281°
2026-05-08 08:21 13.11800 77.41758 33957 ft 376 kts 306°
2026-05-08 08:21 13.13697 77.39983 33950 ft 379 kts 332°
2026-05-08 08:21 13.16197 77.39165 33949 ft 380 kts 357°
2026-05-08 08:22 13.18803 77.39496 33946 ft 380 kts 22°
2026-05-08 08:22 13.21024 77.40912 33949 ft 378 kts 48°
2026-05-08 08:22 13.22443 77.43133 33952 ft 374 kts 74°
2026-05-08 08:22 13.22809 77.45734 33959 ft 369 kts 97°
2026-05-08 08:23 13.22392 77.48335 33964 ft 370 kts 104°
2026-05-08 08:23 13.21305 77.53506 33969 ft 372 kts 104°
2026-05-08 08:24 13.20545 77.58757 33973 ft 374 kts 94°
2026-05-08 08:24 13.20541 77.64100 33974 ft 375 kts 90°
2026-05-08 08:25 13.20678 77.69455 33974 ft 376 kts 89°
2026-05-08 08:25 13.21185 77.72077 33974 ft 378 kts 68°
2026-05-08 08:25 13.21899 77.73709 33975 ft 379 kts 68°
2026-05-08 08:25 13.22551 77.76295 33964 ft 374 kts 92°
2026-05-08 08:26 13.22098 77.78878 33977 ft 368 kts 117°
2026-05-08 08:26 13.20626 77.80976 33974 ft 363 kts 143°
2026-05-08 08:26 13.17642 77.82345 33972 ft 358 kts 177°
2026-05-08 08:26 13.15970 77.82279 33975 ft 357 kts 194°
2026-05-08 08:27 13.13130 77.80690 33970 ft 358 kts 228°
2026-05-08 08:27 13.12167 77.79281 33974 ft 360 kts 245°
2026-05-08 08:27 13.11601 77.76788 33975 ft 364 kts 271°
2026-05-08 08:27 13.12159 77.74259 33976 ft 369 kts 297°
2026-05-08 08:28 13.13747 77.72196 33975 ft 374 kts 322°
2026-05-08 08:28 13.16068 77.71004 33977 ft 378 kts 347°
2026-05-08 08:28 13.18684 77.70689 33980 ft 381 kts
2026-05-08 08:29 13.23984 77.71042 33971 ft 383 kts 13°
2026-05-08 08:29 13.26501 77.71915 33974 ft 383 kts 28°
2026-05-08 08:29 13.28839 77.73226 33975 ft 383 kts 29°
2026-05-08 08:30 13.33508 77.75889 33971 ft 384 kts 29°
2026-05-08 08:30 13.40520 77.79877 33961 ft 384 kts 29°
2026-05-08 08:31 13.45199 77.82543 33952 ft 385 kts 29°